TimeEDT,TemperatureF,Dew PointF,Humidity,Sea Level PressureIn,VisibilityMPH,Wind Direction,Wind SpeedMPH,Gust SpeedMPH,PrecipitationIn,Events,Conditions,WindDirDegrees,DateUTC
12:53 AM,51.1,48.0,89,29.66,10.0,SSW,3.5,-,N/A,,Overcast,200,2013-05-16 04:53:00
1:53 AM,52.0,48.0,86,29.64,10.0,Variable,3.5,-,N/A,,Overcast,0,2013-05-16 05:53:00
2:21 AM,51.8,48.2,88,29.64,9.0,Calm,Calm,-,N/A,,Overcast,0,2013-05-16 06:21:00
2:50 AM,50.0,48.2,94,29.64,8.0,Calm,Calm,-,N/A,,Overcast,0,2013-05-16 06:50:00
2:53 AM,50.0,48.0,93,29.64,8.0,Calm,Calm,-,N/A,,Overcast,0,2013-05-16 06:53:00
3:53 AM,48.9,46.9,93,29.63,5.0,Calm,Calm,-,N/A,,Overcast,0,2013-05-16 07:53:00
4:29 AM,48.2,46.4,93,29.62,5.0,Calm,Calm,-,N/A,,Overcast,0,2013-05-16 08:29:00
4:53 AM,50.0,48.0,93,29.61,2.0,Calm,Calm,-,N/A,,Overcast,0,2013-05-16 08:53:00
5:02 AM,48.2,48.2,100,29.61,1.5,Calm,Calm,-,N/A,,Overcast,0,2013-05-16 09:02:00
5:12 AM,50.0,48.2,94,29.61,1.0,Calm,Calm,-,N/A,,Mist,0,2013-05-16 09:12:00
5:24 AM,50.0,48.2,94,29.62,0.5,Calm,Calm,-,N/A,Fog,Fog,0,2013-05-16 09:24:00
5:53 AM,50.0,48.0,93,29.62,0.2,SW,3.5,-,N/A,Fog,Fog,220,2013-05-16 09:53:00
6:53 AM,50.0,48.0,93,29.63,0.2,SSW,3.5,-,N/A,Fog,Fog,210,2013-05-16 10:53:00
7:43 AM,51.8,48.2,88,29.63,1.5,Calm,Calm,-,N/A,,Overcast,0,2013-05-16 11:43:00
7:53 AM,51.1,48.9,92,29.64,2.0,Variable,4.6,-,N/A,,Overcast,0,2013-05-16 11:53:00
8:03 AM,51.8,48.2,88,29.64,4.0,SW,3.5,-,N/A,,Overcast,230,2013-05-16 12:03:00
8:53 AM,52.0,50.0,93,29.65,9.0,WSW,4.6,-,N/A,,Overcast,240,2013-05-16 12:53:00
9:24 AM,55.4,51.8,88,29.64,10.0,Variable,3.5,-,N/A,,Overcast,0,2013-05-16 13:24:00
9:53 AM,57.9,51.1,78,29.64,10.0,Variable,4.6,-,N/A,,Scattered Clouds,0,2013-05-16 13:53:00
10:53 AM,64.0,52.0,65,29.63,10.0,Variable,4.6,-,N/A,,Clear,0,2013-05-16 14:53:00
11:53 AM,66.9,50.0,54,29.62,10.0,Variable,5.8,-,N/A,,Clear,0,2013-05-16 15:53:00
12:53 PM,71.1,48.9,45,29.61,10.0,SSW,9.2,16.1,N/A,,Partly Cloudy,210,2013-05-16 16:53:00
1:53 PM,71.1,46.9,42,29.59,10.0,SSE,6.9,-,N/A,,Partly Cloudy,160,2013-05-16 17:53:00
2:53 PM,75.9,39.9,27,29.57,10.0,Variable,6.9,-,N/A,,Clear,0,2013-05-16 18:53:00
3:53 PM,75.0,34.0,22,29.57,10.0,Variable,6.9,18.4,N/A,,Mostly Cloudy,0,2013-05-16 19:53:00
4:53 PM,75.0,34.0,22,29.57,10.0,West,6.9,-,N/A,,Partly Cloudy,260,2013-05-16 20:53:00
5:53 PM,73.9,33.1,22,29.58,10.0,Variable,5.8,-,N/A,,Scattered Clouds,0,2013-05-16 21:53:00
6:53 PM,69.1,37.9,32,29.63,10.0,Variable,5.8,-,N/A,,Clear,0,2013-05-16 22:53:00
7:53 PM,66.9,37.9,34,29.68,10.0,Variable,3.5,-,N/A,,Partly Cloudy,0,2013-05-16 23:53:00
8:53 PM,64.0,39.9,41,29.73,10.0,Variable,4.6,-,N/A,,Mostly Cloudy,0,2013-05-17 00:53:00
9:53 PM,62.1,39.9,44,29.77,10.0,Variable,3.5,-,N/A,,Overcast,0,2013-05-17 01:53:00
10:53 PM,60.1,39.0,46,29.78,10.0,Variable,3.5,-,N/A,,Overcast,0,2013-05-17 02:53:00
11:53 PM,57.9,39.0,49,29.80,10.0,Variable,4.6,-,N/A,,Overcast,0,2013-05-17 03:53:00